This demonstration page uses our WeatherBlox Daily Observations layout. Learn more.

Left ArrowRight Arrow

39.08367, -84.50855

Hourly Observations for December 24, 2020

Temp ( °F °C ) Dew Point ( °F °C ) Humidity (%) Winds ( mph kmh ) Pressure ( in mb ) Visibility ( mi km ) Precip ( " mm )
12:53 am 00:53 Cloudy with Light Rain 49 9.4 43 6.1 80 80 S 16 26 29.72 1007 10 16.0934 0.04 1.016
1:53 am 01:53 Cloudy with Light Rain 49 9.4 44 6.7 83 83 S 16 26 29.69 1006 10 16.0934 0.04 1.016
2:10 am 02:10 Cloudy with Light Rain 49 9.4 45 7.2 86 86 W 17 28 29.76 1008 9 14.48406 0.01 0.254
2:39 am 02:39 Cloudy with Light Rain 48 8.9 45 7.2 89 89 SSW 10 17 29.75 1007 8 12.87472 0.07 1.778
2:53 am 02:53 Cloudy with Light Rain 49 9.4 45 7.2 86 86 SSW 12 19 29.73 1007 10 16.0934 0.07 1.778
3:53 am 03:53 Cloudy with Light Rain 49 9.4 45 7.2 86 86 S 12 19 29.7 1006 10 16.0934 0.02 0.508
4:22 am 04:22 Cloudy 48 8.9 46 7.8 93 93 S 8 13 29.71 1006 10 16.0934 0.001 0.001
4:53 am 04:53 Cloudy with Light Rain 48 8.9 46 7.8 93 93 SW 9 15 29.7 1006 8 12.87472 0.001 0.001
5:19 am 05:19 Cloudy with Light Rain 48 8.9 46 7.8 93 93 SSW 13 20 29.71 1006 4 6.43736 0.03 0.762
5:32 am 05:32 Cloudy with Light Rain 45 7.2 42 5.6 90 90 W 18 30 29.72 1007 3 4.82802 0.04 1.016
5:49 am 05:49 Cloudy with Light Rain 45 7 41 5 87 87 WNW 14 22 29.74 1007 5 8.0467 0.04 1.016
5:53 am 05:53 Cloudy with Light Rain 43 6.1 41 5 93 93 W 10 17 29.73 1007 6 9.65604 0.04 1.016
6:06 am 06:06 Cloudy with Light Rain 42 5.6 39 3.9 89 89 W 18 30 29.76 1008 6 9.65604 0.001 0.001
6:14 am 06:14 Cloudy with Light Rain 42 5.6 39 3.9 89 89 W 16 26 29.76 1008 8 12.87472 0.001 0.001
6:40 am 06:40 Cloudy with Light Rain 40 4.4 38 3.3 93 93 VRB 5 7 29.77 1008 7 11.26538 0.01 0.254
6:53 am 06:53 Cloudy with Light Rain 38 3.3 35 1.7 89 89 WNW 12 19 29.76 1008 10 16.0934 0.01 0.254
7:40 am 07:40 Cloudy 37 2.8 32 0 82 82 VRB 7 11 29.8 1009 9 14.48406 0.001 0.001
7:53 am 07:53 Cloudy 36 2.2 30 -1.1 79 79 WNW 12 19 29.78 1009 10 16.0934 0.001 0.001
8:22 am 08:22 Cloudy 35 1.7 29 -1.7 78 78 WNW 12 19 29.81 1010 10 16.0934 0 0
8:53 am 08:53 Cloudy 34 1.1 26 -3.3 73 73 W 16 26 29.8 1009 10 16.0934 0 0
9:42 am 09:42 Cloudy 33 0.6 25 -3.9 72 72 W 10 17 29.85 1011 10 16.0934 0 0
9:53 am 09:53 Cloudy 33 0.6 25 -3.9 72 72 W 10 17 29.83 1010 10 16.0934 0 0
10:21 am 10:21 Cloudy 32 0 22 -5.6 66 66 WNW 9 15 29.85 1011 10 16.0934 0 0
10:53 am 10:53 Cloudy 32 0 22 -5.6 66 66 W 8 13 29.82 1010 10 16.0934 0 0
11:32 am 11:32 Cloudy 31 -0.6 22 -5.6 69 69 NW 7 11 29.84 1010 10 16.0934 0 0
11:53 am 11:53 Cloudy 31 -0.6 21 -6.1 67 67 W 12 19 29.8 1009 10 16.0934 0 0
12:53 pm 12:53 Cloudy 29 -1.7 21 -6.1 72 72 NW 14 22 29.79 1009 10 16.0934 0 0
1:53 pm 13:53 Cloudy with Light Snow 28 -2.2 19 -7.2 69 69 WNW 10 17 29.79 1009 6 9.65604 0.001 0.001
2:53 pm 14:53 Cloudy 27 -2.8 18 -7.8 69 69 WNW 13 20 29.8 1009 10 16.0934 0.001 0.001
3:53 pm 15:53 Cloudy with Light Snow 26 -3.3 18 -7.8 71 71 NW 10 17 29.8 1009 4 6.43736 0.001 0.001
4:53 pm 16:53 Cloudy 26 -3.3 16 -8.9 66 66 NNW 13 20 29.8 1009 9 14.48406 0.001 0.001
5:53 pm 17:53 Cloudy 25 -3.9 15 -9.4 66 66 NW 10 17 29.84 1010 10 16.0934 0 0
6:53 pm 18:53 Cloudy 25 -3.9 16 -8.9 69 69 W 13 20 29.86 1011 10 16.0934 0 0
7:53 pm 19:53 Cloudy 23 -5 12 -11.1 63 63 WNW 9 15 29.88 1012 10 16.0934 0 0
8:53 pm 20:53 Cloudy 22 -5.6 11 -11.7 63 63 WNW 12 19 29.91 1013 10 16.0934 0 0
9:53 pm 21:53 Cloudy 21 -6.1 10 -12.2 62 62 W 13 20 29.91 1013 10 16.0934 0 0
10:53 pm 22:53 Cloudy 20 -6.7 11 -11.7 68 68 NW 8 13 29.93 1014 10 16.0934 0.001 0.001
11:53 pm 23:53 Cloudy 19 -7.2 12 -11.1 74 74 NNW 7 11 29.92 1013 10 16.0934 0.001 0.001

Powered by AerisWeather